User: anonymous   Login
Location: Unspecified
(0.0000°N, 0.0000°E)
Time: 14:36:53
(UTC+00:00)
Language:

AO-40 - Orbit

View from above orbital plane
View from above orbital plane
View from above satellite
View from above satellite

Ground track
Ground track

The orbit data is extracted from the following two-line orbital elements,

1 26609U 00072B   17147.16280679 -.00000076 +00000-0 +00000-0 0  9995
2 26609 006.3515 224.5051 7931933 120.6044 338.7867 01.25586812076087
Epoch (UTC): 27 May 2017 03:54:26
Eccentricity: 0.7931933
inclination: 6.3515°
perigee height: 1126 km
apogee height: 58694 km
right ascension of ascending node: 224.5051°
argument of perigee: 120.6044°
revolutions per day: 1.25586812
mean anomaly at epoch: 338.7867°
orbit number at epoch: 7608

The dashed part of the orbit path shows where the satellite is in the earth's shadow,  

DLR